Montpelier, VT

11:28 PM EDT on May 22, 2017 (GMT -0400)
Knapp State

Weather History for KMPV - January, 2014

Change the Weather History Date:

Thursday, January 30, 2014

  Actual Average Record
Temperature  
Mean Temperature 12 °F 17 °F  
Max Temperature 23 °F 27 °F 49 °F (1950)
Min Temperature 1 °F 7 °F -19 °F (1952)
Degree Days  
Heating Degree Days 53 48  
Month to date heating degree days 1509 1452  
Since 1 July heating degree days 4767 4600  
Cooling Degree Days 0 0  
Month to date cooling degree days 0  
Year to date cooling degree days 0  
Moisture  
Dew Point 2 °F    
Average Humidity 70    
Maximum Humidity 95    
Minimum Humidity 45    
Precipitation  
Precipitation 0.00 in 0.08 in 0.71 in (1990)
Month to date precipitation 1.83 2.36  
Year to date precipitation 1.83 2.36  
Sea Level Pressure  
Sea Level Pressure 30.28 in    
Wind  
Wind Speed 7 mph (South)    
Max Wind Speed 18 mph    
Max Gust Speed 24 mph    
Visibility 10 miles    
Events      
T = Trace of Precipitation, MM = Missing Value Source: NWS Daily Summary

Daily Weather History Graph

Daily Weather History Graph

Search for Another Location

Airport or City:

Trip Planner

Search our weather history database for the weather conditions in past years. The results will help you decide how hot, cold, wet, or windy it might be!

Date:

Astronomy

Jan. 30, 2014 Rise Set
Actual Time 7:10 AM EST 4:57 PM EST
Civil Twilight 6:39 AM EST 5:28 PM EST
Nautical Twilight 6:04 AM EST 6:03 PM EST
Astronomical Twilight 5:30 AM EST 6:37 PM EST
Moon 6:32 AM EST (1/30) 5:07 PM EST (1/30)
Length of Visible Light 10h 49m
Length of Day
9h 47m
Waning Crescent, 0% of the Moon is Illuminated
Jan 30
Waning Crescent
Jan 30
New
Feb 6
First Quarter
Feb 14
Full
Feb 22
Last Quarter

Hourly Weather History & Observations

Time (EST) Temp. Windchill Dew Point Humidity Pressure Visibility Wind Dir Wind Speed Gust Speed Precip Events Conditions
12:51 AM 10.9 °F -1.8 °F -0.0 °F 61% 30.21 in 10.0 mi West 9.2 mph - N/A   Overcast
1:51 AM 9.0 °F 2.4 °F -0.9 °F 64% 30.22 in 10.0 mi ENE 3.5 mph - N/A   Mostly Cloudy
2:51 AM 8.1 °F -0.5 °F 1.0 °F 73% 30.25 in 10.0 mi WSW 4.6 mph - N/A   Overcast
3:51 AM 8.1 °F 1.4 °F -0.0 °F 70% 30.27 in 10.0 mi SE 3.5 mph - N/A   Mostly Cloudy
4:51 AM 5.0 °F -5.6 °F -0.9 °F 76% 30.30 in 10.0 mi South 5.8 mph - N/A   Partly Cloudy
5:51 AM 1.9 °F -5.6 °F -0.9 °F 88% 30.32 in 10.0 mi SSW 3.5 mph - N/A   Scattered Clouds
6:51 AM 7.0 °F -4.5 °F -0.0 °F 73% 30.33 in 10.0 mi SW 6.9 mph - N/A   Clear
7:51 AM 3.9 °F - -0.9 °F 80% 30.38 in 10.0 mi Calm Calm - N/A   Clear
8:51 AM 10.0 °F - 1.0 °F 67% 30.40 in 10.0 mi Calm Calm - N/A   Clear
9:51 AM 14.0 °F 5.1 °F 1.9 °F 59% 30.40 in 10.0 mi South 5.8 mph - N/A   Clear
10:51 AM 17.1 °F 4.3 °F 3.0 °F 54% 30.39 in 10.0 mi SSE 11.5 mph - N/A   Clear
11:51 AM 19.0 °F 9.0 °F 3.0 °F 50% 30.35 in 10.0 mi South 8.1 mph - N/A   Clear
12:51 PM 21.0 °F 10.6 °F 5.0 °F 50% 30.32 in 10.0 mi South 9.2 mph - N/A   Clear
1:51 PM 21.9 °F 11.7 °F 5.0 °F 48% 30.30 in 10.0 mi South 9.2 mph - N/A   Clear
4:51 PM 21.0 °F 11.4 °F 3.9 °F 48% 30.25 in 10.0 mi SSE 8.1 mph - N/A   Clear
5:51 PM 17.1 °F 11.7 °F 3.0 °F 54% 30.25 in 10.0 mi SSE 3.5 mph - N/A   Clear
6:51 PM 18.0 °F 11.1 °F 3.0 °F 52% 30.22 in 10.0 mi SSW 4.6 mph - N/A   Clear
7:51 PM 18.0 °F 7.7 °F 3.0 °F 52% 30.20 in 10.0 mi South 8.1 mph - N/A   Clear
8:51 PM 19.0 °F 10.0 °F 3.0 °F 50% 30.17 in 10.0 mi South 6.9 mph - N/A   Clear
9:51 PM 19.0 °F 6.1 °F 3.0 °F 50% 30.14 in 10.0 mi South 12.7 mph - N/A   Clear
10:51 PM 18.0 °F 5.4 °F 1.9 °F 50% 30.11 in 10.0 mi SSW 11.5 mph - N/A   Clear